Location: *
(45.1961°N, 1.9694°E)
Time: 13:57:44
(UTC+00:00)

Cosmos 1743 - Pass Details

Date: 25 August 2019
Orbit: 512 x 527 km, 82.5° (Epoch: 21 September)

Event Time Altitude Azimuth Distance (km) Brightness Sun altitude
Exits shadow 21:10:36 44° 31° (NNE) 719 3.4 -23.1°
Drops below altitude 10° 21:13:22 10° 14° (NNE) 1,746 5.8 -23.5°
Sets 21:15:31 0° 12° (NNE) 2,639 6.8 -23.7°
